Theta_e
315 315 316 317 316 315 315 315 314 313 310 308 307 309 308 305 300 295 294 295 296 300 298 301 302 305 305 304 304 305 304 305 308 303 300 299 298 305 306 304 303 303 302 301 302 300 301 302 305 306 305 305 305 304 305 304 304 305 305 306 306 305 305 307 308 309 309 310 308 307 307 308 309 309
314 314 313 314 315 314 316 315 314 313 310 307 307 304 303 303 302 295 296 296 294 299 298 296 301 302 305 305 304 304 303 309 307 302 300 299 298 305 305 304 301 302 302 300 300 299 300 302 304 306 305 304 305 304 305 304 304 304 304 305 307 306 305 306 308 309 309 309 307 307 307 307 308 309
313 312 311 311 314 315 316 314 313 312 310 307 305 304 303 302 300 301 299 296 297 298 301 298 297 301 303 306 304 305 304 307 308 302 302 302 304 306 304 304 303 303 303 301 300 302 305 305 305 304 306 305 305 305 305 305 304 303 303 303 304 305 304 304 306 308 308 308 307 306 305 306 307 308
310 309 309 311 313 314 314 312 312 312 311 308 305 305 304 300 299 299 300 298 299 298 297 296 298 301 301 303 303 302 302 304 311 303 303 305 310 303 300 304 304 304 303 302 301 304 306 303 303 304 301 299 302 304 300 304 303 303 302 301 303 304 303 304 304 307 306 306 305 305 304 305 306 307
306 307 307 308 311 312 312 310 310 311 311 308 307 305 303 301 299 299 296 296 296 298 298 297 298 299 301 300 299 299 298 297 301 306 302 304 302 301 298 298 302 302 302 301 301 300 300 299 301 299 298 298 300 300 300 302 304 302 300 300 300 301 302 303 302 303 304 304 305 304 303 304 305 306
307 306 306 306 307 309 310 308 309 309 310 309 307 304 303 301 300 300 297 296 296 298 299 298 300 299 299 300 296 299 297 298 299 299 300 303 302 300 298 297 298 301 302 301 300 301 301 300 300 298 298 299 299 300 300 298 297 300 299 298 299 302 302 302 301 301 302 303 304 304 303 303 305 306
304 305 306 304 305 307 306 306 306 307 308 309 308 305 303 302 300 300 299 297 296 297 297 298 298 298 298 299 297 296 299 299 299 298 299 302 303 302 299 299 300 301 301 300 300 300 300 300 299 298 299 299 299 299 299 299 299 297 297 297 299 299 298 296 296 296 298 303 304 303 303 303 305 306
304 304 305 303 304 305 305 303 304 303 304 306 307 305 302 301 300 300 299 300 296 296 298 297 299 299 298 298 298 299 301 299 300 300 300 300 300 301 302 300 300 301 302 301 301 301 301 300 299 299 299 299 299 299 298 299 299 298 298 297 297 298 296 295 293 292 297 301 302 302 302 302 304 307
303 304 304 304 303 304 304 302 303 303 303 304 304 304 302 301 301 302 301 299 299 299 298 298 299 298 299 299 299 300 301 300 301 301 301 301 300 301 301 303 303 302 301 301 301 300 299 299 299 299 299 299 299 299 299 300 300 300 299 298 298 297 296 295 294 295 297 297 298 301 302 302 304 305
303 303 303 303 304 304 305 304 303 303 303 303 303 302 302 301 302 301 299 299 299 299 299 299 299 299 300 299 299 299 301 302 300 300 299 300 299 299 299 300 302 301 299 298 298 299 297 299 299 299 299 299 299 299 299 300 300 300 299 298 298 297 297 297 296 296 296 296 296 297 299 301 303 304
303 303 304 303 303 304 304 305 305 304 303 305 303 304 303 303 302 301 301 301 299 299 298 297 298 298 298 299 298 299 300 300 300 300 298 297 298 297 296 298 299 298 297 297 297 297 297 300 299 299 299 299 299 299 299 299 300 299 298 298 297 297 297 297 297 297 296 297 296 296 296 297 300 302
304 303 304 304 304 304 304 305 305 305 305 303 303 302 304 304 302 302 301 300 299 298 298 297 296 296 296 296 297 299 299 299 298 298 294 296 295 296 295 294 294 296 296 294 295 297 297 297 298 298 299 299 298 298 298 300 299 299 297 297 297 297 296 297 297 297 297 297 297 296 296 295 296 299
304 304 304 304 302 307 312 310 308 308 308 306 304 301 303 303 302 302 301 302 299 299 298 297 297 297 296 296 298 297 296 297 298 296 294 293 294 294 296 295 295 295 293 293 293 294 295 295 295 295 295 298 297 297 298 298 299 297 296 296 297 297 297 297 297 297 297 297 297 296 296 296 296 295
303 304 303 306 317 314 311 307 304 303 305 307 308 306 304 304 303 302 302 300 300 300 298 298 298 297 297 295 297 296 294 295 295 296 295 294 293 291 292 293 292 295 292 292 292 292 294 293 293 293 294 296 296 294 294 295 296 296 296 296 297 297 296 296 297 297 297 297 297 296 296 296 296 295
304 304 304 303 309 312 312 305 302 301 301 302 303 304 305 307 306 303 302 301 301 301 300 298 298 298 298 297 295 295 297 294 296 294 293 293 291 289 289 289 291 292 292 289 288 291 292 292 291 291 293 294 294 294 294 296 297 296 296 296 296 296 296 296 296 296 296 296 296 296 296 296 296 294
304 305 305 304 306 307 305 304 302 301 300 299 299 300 300 301 302 303 304 303 300 299 300 298 299 299 299 298 296 296 296 295 294 293 292 290 290 289 288 286 287 291 293 288 287 288 290 290 290 291 292 293 293 294 296 296 296 296 296 296 295 296 296 296 296 296 295 295 295 295 295 295 294 294
306 304 305 306 304 308 313 311 302 301 299 297 295 296 298 298 298 298 299 300 305 304 303 301 298 299 298 298 297 298 297 296 295 292 290 289 289 288 288 287 288 290 291 288 287 287 289 290 288 290 291 291 291 292 295 295 295 296 296 295 295 295 295 295 295 295 294 294 295 295 295 294 294 294
306 306 307 308 307 306 307 307 303 302 299 298 297 297 298 297 296 295 296 296 299 302 305 303 302 300 300 301 300 300 297 296 295 293 291 290 289 289 289 289 289 291 293 291 287 287 288 288 287 287 290 290 291 291 293 294 295 295 295 295 295 295 295 295 295 295 295 294 295 295 295 294 293 293
306 307 308 308 308 308 307 308 305 303 301 299 300 299 299 297 298 297 297 300 301 304 304 304 305 303 303 302 302 301 298 297 296 295 292 291 290 290 290 289 288 289 291 289 287 287 286 284 286 287 288 290 289 288 293 294 294 295 295 295 294 295 295 295 294 294 294 294 295 294 294 293 293 292
309 308 308 308 308 306 307 305 299 301 302 301 301 301 298 297 294 294 294 292 293 298 302 303 304 304 303 300 301 299 295 293 293 293 292 292 292 292 289 287 286 288 289 288 284 284 284 284 286 286 287 286 287 288 287 292 295 295 295 294 294 294 294 294 294 294 294 294 294 294 294 293 293 292
310 310 310 309 309 308 309 304 299 296 300 301 301 301 299 297 295 294 294 293 292 293 295 296 296 295 295 295 295 294 293 294 294 293 292 290 290 289 285 287 285 286 285 287 286 284 284 284 284 286 285 286 287 286 287 288 292 294 294 294 294 294 294 294 294 294 294 294 294 294 294 293 293 293
308 309 310 312 310 309 310 302 298 296 301 303 303 302 302 298 296 294 294 295 294 293 293 293 293 293 292 292 292 292 292 293 295 293 291 289 288 288 286 284 286 284 285 287 288 284 284 282 282 285 283 284 283 286 286 287 290 292 292 293 293 293 293 294 294 294 294 294 294 294 294 293 293 291
306 308 309 308 309 309 307 301 298 295 300 305 304 304 302 300 298 298 294 294 293 294 293 292 293 292 294 294 293 294 293 293 294 292 292 290 291 289 287 286 284 284 285 284 287 285 283 284 283 283 283 281 282 282 285 287 289 289 289 290 290 292 293 293 293 293 293 293 293 293 293 293 293 290
304 305 306 305 299 298 299 298 298 296 296 304 304 305 304 301 299 301 295 295 295 295 295 294 293 292 292 293 293 293 293 295 295 292 292 291 292 290 288 287 284 282 283 285 287 285 282 283 283 282 283 283 279 281 283 286 286 289 289 288 287 291 292 292 291 292 292 293 293 293 293 293 293 290
306 305 305 306 303 298 297 297 297 296 294 297 304 305 305 304 301 295 295 296 295 296 295 294 292 291 291 290 290 291 292 293 292 292 291 291 291 290 287 285 284 284 284 284 291 285 284 283 282 281 282 282 281 283 281 281 286 285 288 286 286 289 289 289 290 289 290 291 291 292 292 292 293 292
304 306 307 306 303 299 297 296 296 296 296 296 299 305 299 297 291 297 296 296 296 296 294 293 292 291 290 290 289 289 291 293 293 291 289 288 286 286 288 288 286 284 286 286 291 284 283 283 283 283 282 282 282 281 282 282 284 285 285 286 286 288 288 288 288 287 288 288 289 290 291 292 292 293
306 306 306 306 302 298 297 296 295 295 295 295 298 296 296 294 292 294 297 296 296 295 294 293 292 291 292 291 290 290 289 289 290 290 289 288 289 289 288 287 287 287 286 286 292 285 284 284 284 283 283 282 282 281 281 282 284 284 285 285 287 287 288 285 286 288 288 288 289 291 291 290 290 291
307 305 304 303 300 298 297 296 295 294 294 297 295 294 295 293 292 297 295 296 296 293 292 292 292 292 292 293 292 290 289 289 289 289 288 288 288 288 287 286 288 286 285 285 285 283 284 284 284 284 283 283 282 281 281 283 283 283 284 287 287 287 288 287 286 287 288 288 288 288 287 288 289 288
305 301 298 297 297 296 295 294 293 292 293 292 293 293 293 294 297 297 296 295 293 292 291 292 291 291 291 292 291 290 289 289 289 288 287 286 285 284 285 284 285 285 287 287 284 284 284 284 284 284 283 283 283 284 283 283 282 283 284 285 284 285 288 287 286 285 287 287 286 287 286 287 287 287
294 292 293 295 294 293 293 292 294 295 295 292 292 292 293 298 298 297 295 294 294 292 291 291 291 290 289 289 289 289 289 288 287 287 286 286 285 285 286 286 285 284 283 284 286 285 284 284 284 283 283 283 284 284 283 282 282 283 284 283 285 286 283 284 287 287 287 287 287 287 287 286 286 287
296 296 294 293 291 292 291 291 291 291 290 292 293 294 296 296 297 297 295 294 294 292 291 290 289 288 288 288 288 287 287 287 286 287 286 285 284 285 283 283 283 283 284 283 284 286 285 285 284 283 283 283 284 282 283 282 283 283 284 283 284 282 285 286 286 286 286 286 286 286 286 285 286 287
294 292 289 290 291 290 289 289 288 289 291 291 291 293 293 293 292 292 292 292 292 291 291 289 288 286 287 287 286 286 286 286 285 285 285 285 284 283 282 281 282 282 282 283 283 284 287 285 285 284 284 283 282 283 282 282 283 283 283 283 284 284 285 284 284 285 285 285 284 284 284 284 285 285
292 291 290 288 290 289 286 286 286 288 289 288 290 293 292 292 292 292 292 291 290 289 289 288 287 286 286 285 285 285 284 285 285 283 285 285 285 282 282 283 283 281 282 282 283 284 283 283 284 285 284 283 283 284 282 282 281 282 284 284 283 283 284 284 284 284 285 284 284 284 284 284 285 285
288 287 286 286 287 287 286 286 287 287 287 288 288 288 289 291 292 291 290 290 289 288 288 287 286 286 285 285 284 284 284 284 284 285 286 283 283 282 282 282 281 282 281 281 282 283 283 283 284 284 283 282 284 285 286 284 282 284 284 283 282 282 284 284 284 284 283 282 284 283 283 283 284 284
288 288 289 288 288 287 287 287 288 287 287 287 288 288 288 289 289 288 289 288 287 287 287 286 286 286 286 285 284 284 284 284 284 283 282 282 283 283 283 281 281 281 281 281 281 282 282 282 283 283 282 284 286 287 291 289 286 285 285 284 283 282 283 284 284 284 283 281 282 283 283 283 284 285
289 289 289 289 288 287 287 287 287 288 288 288 288 288 288 287 288 288 287 287 287 286 286 286 285 285 285 284 283 284 283 282 283 283 280 281 281 281 280 281 280 281 280 281 281 282 282 281 282 282 283 284 284 284 285 292 291 287 284 282 283 283 283 283 283 283 283 283 283 282 281 281 282 285
290 287 287 287 287 286 287 287 288 288 288 288 287 287 287 286 286 288 287 287 287 286 286 286 285 285 284 283 282 281 281 282 279 280 281 281 281 280 279 278 279 280 280 281 281 281 282 281 282 284 284 284 283 282 284 285 287 290 287 283 283 283 283 283 282 283 284 283 282 282 282 282 282 285
288 286 285 285 285 285 286 288 288 287 287 287 287 287 287 286 286 286 287 286 286 285 285 285 284 284 283 282 282 280 279 279 281 281 279 280 278 277 278 278 278 278 280 281 281 281 281 282 284 285 285 283 282 283 283 286 286 287 290 287 285 284 282 282 283 284 284 283 282 284 284 282 283 285
287 286 286 285 285 286 287 288 288 288 288 287 287 286 286 286 286 286 286 286 285 285 284 284 283 282 282 281 281 282 281 281 281 279 279 277 278 278 277 277 278 279 279 280 280 281 282 283 284 285 285 284 284 284 285 284 284 287 288 290 288 285 283 282 283 282 281 281 283 284 283 285 286 287
288 288 288 288 288 288 288 288 287 288 287 287 287 287 286 286 285 285 285 285 285 284 284 283 282 282 281 280 280 280 281 281 280 278 277 276 276 276 276 276 278 280 281 279 281 283 284 284 284 285 285 286 286 286 286 286 286 286 285 286 289 287 285 284 282 280 277 281 284 283 282 283 281 281
289 289 289 289 289 289 288 288 288 288 287 287 287 286 286 286 286 286 285 285 284 284 283 282 282 282 281 281 282 283 281 278 277 276 275 275 277 277 279 281 280 280 282 283 283 283 283 284 285 286 286 285 285 285 285 284 283 283 284 285 288 288 288 288 282 280 281 283 283 282 282 282 280 279
289 289 289 290 290 289 289 288 288 287 287 286 286 286 286 286 286 286 285 285 285 284 284 283 282 281 280 279 280 281 281 279 277 276 276 274 276 278 281 281 281 283 283 282 281 281 283 283 284 285 285 285 284 284 284 284 283 283 284 284 285 286 287 287 287 285 282 283 283 281 282 282 280 279
287 288 288 288 289 289 288 288 288 287 287 287 286 286 286 285 285 285 285 285 284 283 282 281 281 281 279 277 278 279 280 278 277 278 278 276 277 279 280 280 282 283 283 283 282 281 282 284 284 284 285 285 285 285 284 284 283 283 284 285 285 280 277 283 285 286 287 287 287 285 284 283 280 279
288 288 288 288 288 288 288 288 288 287 287 286 286 286 286 286 285 285 285 284 283 282 281 281 280 280 278 277 277 277 278 278 277 276 276 278 279 279 281 283 284 284 284 284 282 282 283 284 285 286 285 285 285 284 284 283 283 284 285 285 283 279 278 278 277 280 283 285 286 287 287 287 286 286
289 289 288 287 287 287 287 287 287 287 286 286 286 286 285 285 285 284 283 282 282 282 282 281 280 278 278 278 280 279 277 281 277 277 277 279 281 282 284 284 284 283 283 284 283 282 282 283 284 285 285 285 285 283 284 284 284 284 285 285 285 282 278 278 279 277 276 278 284 286 286 286 286 286
Wind_Speed
4 4 5 5 4 3 3 4 4 5 5 4 4 7 11 10 10 5 4 4 3 3 3 3 4 6 5 4 3 3 3 3 3 1 1 1 1 2 3 4 4 4 4 4 4 4 5 5 6 6 6 6 6 6 5 6 7 7 8 9 9 9 9 9 8 10 11 13 13 12 11 12 12 13
4 4 3 3 4 3 4 5 4 5 6 6 5 5 5 7 10 5 6 5 3 3 2 3 3 3 5 4 3 3 3 4 3 2 1 1 1 2 2 2 2 2 2 2 2 3 3 4 5 5 4 4 4 4 4 4 4 5 6 6 7 8 8 8 8 9 9 11 12 12 12 12 12 13
5 5 5 3 5 4 5 5 4 4 6 6 5 5 6 3 4 8 6 5 5 3 6 4 3 4 4 4 3 3 2 2 2 1 0 0 1 1 1 1 1 3 3 2 3 2 2 3 4 4 4 4 4 3 2 1 1 2 3 3 4 6 6 7 8 8 9 10 10 11 12 12 12 12
4 6 6 5 6 5 4 4 5 4 4 5 6 6 7 4 4 3 5 7 6 4 4 4 3 4 4 4 4 3 1 1 4 2 1 0 1 0 0 1 2 3 4 3 4 4 4 4 3 3 4 4 4 3 3 2 1 1 1 2 2 3 3 4 6 7 8 8 9 10 11 11 11 11
4 5 6 6 6 6 6 5 5 5 6 5 6 5 6 6 5 6 3 4 3 0 2 2 4 3 4 3 4 3 2 1 0 3 2 2 1 0 0 1 2 4 5 4 3 5 5 4 3 4 5 6 6 5 5 4 3 3 3 2 1 2 1 2 3 5 5 6 7 8 9 9 10 10
1 4 6 4 5 6 7 6 7 7 6 6 5 5 6 7 6 6 5 3 4 7 1 2 0 3 3 4 2 5 2 1 1 2 2 1 2 2 2 1 2 4 5 5 4 5 6 6 6 7 8 8 9 7 6 6 6 5 5 5 4 3 2 2 2 3 4 5 6 6 7 8 8 9
3 4 5 5 4 4 5 5 5 5 6 6 7 7 5 7 7 7 5 4 3 6 5 3 4 4 3 5 3 2 2 2 2 3 1 1 1 1 1 0 1 3 3 4 4 4 5 5 6 7 8 9 9 9 8 6 6 5 6 6 6 4 3 4 3 4 4 4 6 7 7 9 10 9
3 4 5 4 4 4 6 4 4 4 4 7 6 6 5 5 7 7 5 4 5 4 6 4 6 4 4 3 3 3 2 2 2 1 2 3 2 1 2 3 4 6 8 6 4 4 4 6 7 9 10 9 9 9 9 8 6 4 4 6 6 6 5 5 5 5 4 5 6 7 8 9 11 12
2 3 5 4 4 4 5 3 3 4 5 4 6 7 7 7 6 5 5 4 3 6 7 5 3 1 2 1 2 4 6 3 4 4 4 3 3 6 5 5 4 6 7 6 6 7 8 9 8 9 8 7 8 10 10 10 9 6 2 3 4 5 5 6 6 6 4 4 5 6 6 8 11 11
2 3 3 4 4 4 6 5 4 4 5 4 5 5 5 5 5 5 3 4 4 6 7 7 4 0 3 2 2 2 5 7 5 4 4 5 5 5 6 4 3 2 3 3 3 5 5 7 8 10 10 11 12 12 12 12 12 10 6 2 3 5 6 7 7 8 5 4 6 6 6 7 9 11
3 4 4 4 4 5 5 7 7 6 5 6 6 7 6 5 6 6 5 4 5 5 5 2 2 3 2 2 3 2 3 3 4 7 4 3 3 4 3 3 2 2 1 1 4 6 7 10 9 12 14 14 14 13 15 14 14 13 11 8 5 4 5 7 8 8 6 5 6 7 7 7 8 10
3 3 4 5 4 4 4 5 6 6 7 4 5 3 4 5 6 6 4 4 4 4 4 4 4 1 2 2 2 2 4 4 2 1 3 6 2 3 4 3 3 4 3 6 6 8 10 9 10 11 12 13 13 13 12 14 14 14 13 12 10 8 6 6 7 7 7 6 7 7 8 9 9 9
2 2 1 2 3 3 4 3 4 5 6 7 6 4 5 5 6 5 4 6 6 4 5 4 2 3 3 3 6 5 5 7 8 3 3 3 1 1 5 2 3 2 2 3 6 7 6 6 7 6 7 7 8 10 10 8 11 12 11 12 11 11 10 9 7 7 6 7 7 8 9 9 10 10
3 3 3 2 2 4 7 7 6 5 6 5 5 8 7 7 6 6 6 6 6 6 6 7 6 5 6 5 5 5 2 3 4 6 5 5 1 3 3 1 1 4 3 4 7 5 5 4 5 6 6 4 5 5 6 6 7 8 10 10 10 10 10 9 8 8 7 8 7 8 8 8 9 9
4 3 2 2 3 1 2 2 4 5 5 5 3 5 8 8 10 9 6 7 7 7 7 5 4 6 6 5 4 4 7 3 5 6 5 7 5 3 3 2 1 2 3 3 2 5 4 3 6 4 4 3 4 4 5 7 9 8 8 9 9 9 9 9 9 9 9 9 8 8 8 8 8 8
4 5 4 2 1 1 2 2 3 3 3 4 6 8 7 6 4 4 7 8 5 5 6 5 7 6 7 6 6 5 5 6 5 4 5 4 6 4 3 2 2 1 2 2 2 3 3 2 2 4 2 2 1 2 4 7 7 7 7 7 8 9 9 9 9 9 10 10 10 8 7 7 7 7
6 5 5 4 4 4 5 4 4 4 3 3 4 6 6 5 5 5 3 3 6 8 7 7 6 8 6 7 6 6 8 5 8 4 4 3 3 4 6 4 1 1 1 3 3 1 3 3 3 3 1 1 2 1 4 6 7 7 7 7 7 8 8 8 9 10 10 10 11 10 9 8 7 6
5 6 6 7 7 5 4 5 4 4 4 4 3 3 3 3 2 3 5 6 6 7 7 8 8 6 6 9 7 6 7 9 8 7 5 4 5 5 5 3 3 1 2 1 3 1 2 1 1 2 5 2 3 2 4 5 6 6 7 7 7 7 7 7 8 9 9 10 10 10 10 10 10 9
4 5 6 6 8 6 6 6 7 5 5 4 3 3 2 1 1 1 2 1 3 6 4 7 7 8 7 6 9 8 6 5 6 7 7 7 5 7 4 4 2 2 2 3 2 2 2 0 1 2 3 4 4 3 4 5 6 6 7 8 8 8 9 9 9 9 9 10 10 10 10 10 10 10
5 4 4 5 6 5 5 8 9 7 3 5 5 5 4 1 1 1 2 3 5 3 3 5 7 8 8 9 8 8 6 6 6 8 8 8 8 8 5 2 1 1 2 2 2 1 2 1 0 2 4 2 3 3 3 5 6 7 8 8 9 10 10 10 11 11 11 10 10 10 10 10 10 10
6 6 6 6 7 6 7 10 12 11 7 3 3 5 6 3 2 2 1 4 5 6 6 8 9 12 12 12 12 11 12 11 9 9 8 7 7 7 4 1 1 2 1 1 1 2 1 2 2 3 3 2 3 3 4 3 5 7 8 9 10 10 11 11 11 11 11 11 11 11 11 10 9 9
4 6 9 9 7 8 9 9 10 11 10 7 9 8 7 5 5 4 1 1 4 6 10 11 13 13 14 14 12 10 10 12 9 9 9 8 7 6 6 4 4 1 1 2 2 1 2 1 1 2 4 3 2 3 4 3 5 6 6 8 9 10 10 11 11 11 11 11 11 11 11 10 8 5
4 4 7 10 10 8 10 12 11 11 10 8 9 10 8 8 8 9 6 6 6 5 7 5 8 8 8 7 8 8 11 7 3 3 8 7 7 7 5 5 3 1 2 4 1 0 1 0 1 1 3 1 4 2 2 3 5 5 4 5 6 9 9 10 10 11 10 10 10 11 11 11 7 4
5 6 6 6 12 14 13 14 13 12 14 9 10 9 9 8 12 9 7 3 6 5 8 7 4 7 5 5 6 6 5 3 3 6 7 6 7 7 7 6 4 3 3 2 1 1 1 1 2 1 1 1 2 1 3 4 4 5 4 5 4 7 7 8 7 10 10 9 10 10 10 10 8 4
8 7 7 7 10 14 15 14 14 11 12 14 7 6 8 11 3 9 7 7 9 9 9 8 7 7 6 5 5 5 5 5 6 6 4 5 6 8 7 6 4 2 1 2 3 2 1 2 1 1 1 2 3 3 3 3 6 4 3 2 4 7 5 6 5 6 7 9 10 10 9 9 9 6
6 8 8 7 11 14 14 13 13 14 14 14 7 7 12 5 12 11 10 9 8 7 6 6 6 6 6 6 5 5 6 5 5 5 5 4 3 4 7 8 7 5 1 1 5 2 2 0 2 1 1 0 4 1 4 3 5 5 3 4 4 6 4 5 6 6 6 5 6 6 8 11 10 9
8 7 7 8 11 13 12 12 13 13 14 10 7 12 13 10 12 11 8 7 8 8 7 8 7 5 6 7 6 6 5 3 4 5 5 4 5 4 3 3 5 6 3 2 1 3 2 0 1 1 1 1 2 2 2 3 5 3 6 5 5 6 5 3 4 5 6 6 6 9 9 8 9 9
7 6 6 8 13 13 13 12 12 12 11 10 11 11 13 14 13 9 8 7 7 6 7 7 7 7 5 6 7 6 5 5 5 5 5 5 5 6 6 4 4 4 4 3 2 2 3 1 0 1 2 1 1 3 4 4 5 3 5 6 5 5 5 3 4 4 5 5 6 6 6 6 6 5
6 7 10 12 12 13 12 10 8 7 9 13 11 13 14 12 8 8 8 8 9 8 5 4 4 5 5 5 7 6 7 6 6 6 4 4 4 4 5 4 4 2 2 1 2 2 2 2 1 0 0 0 1 3 3 5 3 4 4 6 6 5 6 5 3 5 6 6 5 6 6 6 6 5
11 11 12 12 10 8 6 4 5 6 5 4 5 11 13 10 10 10 10 10 10 10 8 7 6 3 4 5 6 7 7 7 7 6 5 6 4 5 6 6 3 1 2 1 0 1 1 1 1 1 0 1 2 3 3 3 5 5 4 4 6 6 2 4 6 6 6 7 6 6 6 5 5 4
8 7 0 2 1 2 3 3 4 4 4 4 4 6 4 1 1 5 9 11 12 11 9 7 7 6 4 5 6 6 6 6 5 4 6 6 6 5 3 5 2 1 2 2 1 1 0 0 1 2 1 2 3 3 3 2 5 5 6 5 4 4 6 5 5 6 6 6 6 6 6 6 6 3
2 1 1 4 4 4 2 1 2 3 4 3 4 5 5 7 8 7 10 10 7 5 7 8 8 7 6 6 5 5 5 5 5 4 6 6 5 4 4 3 1 0 2 4 3 1 1 0 0 1 1 1 2 4 1 2 4 5 5 4 4 5 5 5 6 6 5 5 6 6 6 5 6 6
1 2 1 1 2 4 4 3 2 3 5 5 5 6 7 8 8 9 9 9 9 8 10 10 10 8 7 6 4 5 5 5 5 3 5 4 6 1 3 5 5 2 1 3 3 5 2 2 0 1 2 2 3 4 3 3 3 2 5 6 5 6 6 5 4 5 5 5 5 6 7 6 5 5
2 2 3 3 4 3 5 5 5 5 6 6 6 5 6 8 8 9 10 10 9 7 8 9 9 8 8 7 6 6 6 5 5 5 6 4 4 4 4 5 2 1 0 2 3 4 5 3 4 4 2 2 3 4 4 2 4 5 5 5 4 5 6 5 5 4 3 2 4 6 7 7 5 5
4 3 4 4 3 3 3 4 5 5 6 7 8 8 7 6 8 9 10 10 8 7 7 7 8 8 8 8 7 7 7 7 6 4 3 5 5 6 6 5 2 0 0 2 4 4 3 4 5 4 2 2 3 2 2 3 1 5 4 5 4 3 5 5 5 6 4 3 2 6 7 6 7 6
5 5 5 5 5 5 5 5 4 5 6 6 7 8 8 8 8 11 11 10 10 8 8 8 8 8 8 8 8 7 7 6 6 6 4 5 5 4 5 3 2 1 0 2 3 3 2 3 3 4 5 6 7 7 4 3 3 2 4 4 4 3 4 5 4 4 3 5 5 5 5 7 7 7
6 6 6 7 6 6 7 6 6 5 6 7 6 6 6 5 4 8 9 9 8 8 8 8 8 8 8 7 6 6 6 7 6 6 6 5 5 5 4 2 1 1 2 3 2 2 1 2 2 4 5 4 6 6 8 2 4 4 3 4 5 3 4 5 5 5 4 4 5 4 5 5 5 6
7 6 6 6 6 6 4 5 5 5 4 3 6 9 8 6 4 7 8 8 8 7 7 8 7 7 7 7 7 6 5 5 6 7 6 5 5 3 3 1 1 1 2 4 2 1 0 1 4 3 3 4 4 4 7 5 5 3 3 1 4 7 4 4 4 4 5 5 5 5 4 5 5 5
5 5 5 5 4 4 4 5 4 6 7 6 5 6 8 8 7 5 5 6 7 7 7 7 7 7 7 6 6 7 7 6 6 7 6 5 4 3 1 0 1 2 1 3 4 2 2 4 2 1 1 2 3 4 4 5 6 7 3 5 5 6 4 2 4 2 3 5 6 6 2 3 6 7
4 4 5 5 4 4 5 6 6 6 5 4 5 7 7 8 7 7 6 6 6 6 7 6 6 5 5 6 6 5 6 7 7 7 5 4 2 1 1 1 1 1 1 1 3 4 4 4 2 3 4 5 5 4 2 4 5 6 7 7 5 5 4 1 2 1 2 2 3 5 7 7 6 5
4 4 4 5 5 6 6 5 6 6 6 5 4 4 5 6 7 6 6 6 6 7 6 5 5 6 6 6 6 7 7 6 6 5 4 2 2 2 3 3 1 1 0 2 2 3 4 4 4 5 4 4 3 0 0 3 5 6 6 5 2 2 3 4 2 2 1 1 2 3 5 6 5 5
1 3 3 4 6 6 6 6 6 7 7 5 5 4 3 4 6 8 7 6 7 6 6 5 5 6 6 6 6 7 7 6 5 4 3 3 2 1 3 1 0 1 0 2 2 4 5 3 3 2 1 1 1 1 2 3 5 7 6 5 4 2 3 2 4 3 3 2 0 2 3 3 2 3
3 3 4 5 6 6 6 6 6 7 6 5 6 5 4 5 6 7 6 6 6 6 5 5 5 6 6 6 6 7 7 6 5 5 4 3 2 1 0 1 1 1 1 3 3 3 4 3 3 2 1 0 1 2 2 4 4 5 5 5 5 3 2 3 1 2 4 4 4 4 2 2 2 4
4 5 4 3 5 5 5 7 8 6 6 5 5 5 5 6 6 6 6 6 6 6 5 5 5 6 6 6 6 6 6 6 4 4 4 3 3 2 2 1 1 1 0 1 3 4 4 4 3 2 2 2 0 1 4 4 5 4 4 4 3 2 3 3 2 2 5 8 9 7 8 8 7 6
4 5 5 3 5 5 6 5 6 5 6 6 6 6 5 5 5 5 5 5 6 6 6 5 6 6 7 6 7 6 3 3 3 1 1 2 2 2 1 0 1 2 2 1 2 4 4 4 4 1 0 2 1 2 4 4 5 5 4 3 5 3 2 1 2 3 3 4 6 8 6 7 8 8
Wind_Direction
163 154 162 178 144 157 140 138 138 127 103 102 129 149 155 157 143 151 164 205 158 212 167 162 229 189 196 224 232 231 223 224 195 140 134 149 120 84 77 65 69 65 43 34 26 23 23 25 29 39 34 39 46 48 42 37 34 33 35 35 40 37 33 25 28 37 34 33 27 19 14 18 17 13
156 145 153 156 140 152 148 153 151 129 129 138 151 117 118 146 146 154 151 217 209 187 208 172 191 180 198 194 223 215 234 242 183 137 144 171 183 149 105 71 31 10 19 17 15 7 10 19 17 16 18 21 24 41 49 43 33 26 32 31 41 39 35 23 20 29 29 28 22 14 8 11 14 12
150 149 155 155 151 170 165 143 145 128 131 150 144 125 129 129 131 152 140 144 241 166 188 238 215 190 190 172 194 223 220 238 205 116 85 306 261 168 154 110 2 318 318 319 315 323 344 26 18 13 358 355 348 356 7 39 39 35 16 14 40 49 39 24 12 25 25 23 18 11 4 5 7 8
148 149 154 170 162 176 161 150 159 155 158 157 157 154 148 142 124 122 151 156 190 221 177 213 219 184 152 166 174 230 293 196 187 116 140 274 154 77 11 271 273 282 291 295 305 318 348 20 19 4 352 341 342 356 325 304 186 217 321 6 34 54 56 23 3 15 22 16 16 12 6 6 3 0
135 143 150 166 171 163 160 170 170 173 170 167 169 153 150 148 145 143 140 126 136 183 223 197 198 156 136 174 184 186 200 39 116 152 175 173 161 150 244 297 298 284 286 295 305 315 334 359 353 343 338 347 360 351 316 287 241 208 216 222 272 306 313 8 358 350 2 8 15 12 6 1 357 2
118 131 130 146 161 171 164 167 176 180 168 167 162 171 170 169 163 166 119 150 141 186 227 210 109 148 166 194 176 190 176 157 138 176 200 168 163 166 202 238 308 294 293 310 337 331 330 331 332 337 344 351 349 352 338 306 276 235 201 204 217 230 229 274 306 306 325 357 16 11 1 352 349 6
112 107 121 139 146 147 149 169 173 171 177 172 177 184 180 175 175 178 168 129 144 166 212 198 177 186 170 190 196 135 133 177 167 189 205 150 113 167 154 34 335 2 1 7 350 330 317 321 341 348 353 354 349 342 345 331 303 266 213 205 207 213 215 250 270 279 295 333 6 5 1 349 343 360
112 126 117 143 143 142 140 145 147 160 167 175 180 175 182 176 178 181 183 179 135 169 165 234 192 197 169 223 83 117 89 82 47 91 79 81 78 66 70 58 49 38 57 52 41 24 11 11 8 10 3 357 349 352 359 357 352 308 232 210 207 205 216 240 258 268 291 329 341 351 353 348 346 346
120 128 141 162 148 142 132 133 145 157 157 172 169 180 175 176 176 164 170 172 131 144 178 199 236 141 199 94 128 143 120 83 61 49 75 89 86 65 50 71 65 64 58 60 51 29 24 16 20 15 8 5 8 16 21 23 28 25 350 241 230 222 230 248 260 273 289 318 320 331 339 337 337 339
139 129 139 162 161 157 153 171 173 162 155 149 154 159 166 158 154 152 147 143 148 164 180 171 188 115 168 111 79 189 138 130 93 62 56 52 41 73 76 44 41 30 36 34 16 24 24 26 37 36 41 36 35 36 33 35 36 32 26 349 250 241 247 257 269 281 302 321 306 306 316 319 322 327
161 153 147 165 178 178 174 163 171 166 161 158 162 166 161 159 151 157 162 154 158 172 163 170 166 131 36 132 130 50 88 88 125 137 102 60 11 48 94 86 4 342 337 87 45 39 39 39 39 38 43 40 39 44 44 43 42 37 31 21 357 302 281 280 286 294 307 305 296 299 304 303 305 309
199 179 166 167 180 187 197 178 171 164 160 151 150 159 148 151 150 157 153 143 154 165 178 179 173 128 142 58 69 96 105 91 49 50 130 136 118 74 45 62 44 347 30 24 14 18 22 28 33 37 43 41 41 45 46 44 45 43 40 37 30 14 345 320 309 305 305 301 297 296 296 297 296 294
284 272 219 179 166 178 183 211 194 196 168 153 157 176 153 156 154 146 152 160 158 172 175 196 90 113 101 136 130 133 154 175 172 183 122 115 133 118 120 67 19 354 32 38 41 28 8 24 34 28 40 28 32 38 40 35 36 40 39 39 35 31 24 14 359 341 330 320 311 304 298 298 295 291
279 277 288 287 214 206 183 176 182 198 197 206 176 169 163 162 156 161 161 170 180 170 184 205 166 158 181 177 173 160 189 137 108 111 117 120 168 72 82 69 350 347 51 58 49 19 11 38 50 37 44 11 30 33 34 35 40 36 36 34 31 27 24 20 17 11 0 348 332 319 310 303 299 298
259 280 301 313 322 324 226 191 192 190 192 193 181 177 184 176 168 162 166 185 175 180 199 184 170 185 188 203 171 152 144 143 148 148 132 127 120 136 139 173 299 338 65 80 75 13 351 29 57 42 30 5 19 24 31 29 33 32 28 27 24 21 17 11 10 8 5 357 346 336 326 316 314 313
230 250 270 277 297 258 233 232 208 208 193 176 170 169 179 187 206 191 168 164 176 188 176 180 200 174 194 177 159 155 139 141 109 127 135 139 145 140 119 143 138 330 45 93 88 1 333 11 72 67 19 336 333 11 17 26 27 26 19 16 15 13 8 1 356 356 356 353 350 344 333 323 316 308
210 215 233 247 238 223 210 212 220 204 186 146 147 155 156 171 190 194 200 205 190 174 172 183 187 193 168 158 195 178 158 143 131 140 109 130 124 133 123 157 189 300 63 90 78 46 316 5 10 15 309 282 295 306 346 6 12 16 11 5 358 357 355 350 344 343 346 346 346 343 341 333 317 305
208 208 207 224 237 231 208 202 202 206 203 181 159 153 143 139 133 159 190 194 174 180 182 173 190 202 174 176 170 172 149 142 154 150 154 145 121 118 132 159 154 290 22 132 136 63 284 341 14 342 304 309 308 297 296 323 344 350 355 354 341 332 334 338 336 333 334 338 339 338 338 336 330 323
256 224 220 216 226 221 212 213 196 190 199 181 186 183 197 147 50 52 59 99 172 186 183 191 188 170 176 164 158 161 166 146 154 156 156 159 135 115 99 65 22 358 36 89 97 206 261 293 29 282 276 303 297 269 291 305 316 333 341 338 332 326 324 329 333 332 331 331 330 330 330 328 324 320
243 249 243 240 238 227 224 224 204 206 182 183 180 200 206 168 18 31 338 301 272 275 198 183 171 167 152 143 142 136 137 119 119 98 92 90 106 120 111 133 329 69 316 66 103 159 262 272 146 269 270 276 290 289 291 284 312 330 330 327 326 326 324 324 326 329 329 326 323 325 325 324 321 318
236 227 218 217 226 228 231 222 195 191 155 169 201 206 204 199 191 234 332 20 74 106 96 101 107 119 127 122 126 139 142 141 139 116 113 134 136 121 117 170 79 208 297 304 132 146 208 234 200 284 281 302 280 290 277 283 301 324 326 320 319 319 317 315 316 321 321 319 319 321 324 325 323 318
233 239 229 214 215 224 234 236 207 174 161 175 191 205 221 196 200 237 246 63 28 74 96 106 112 112 113 111 111 123 133 144 139 138 152 170 128 130 140 166 192 232 310 265 151 91 213 279 219 241 293 329 271 270 271 279 310 323 321 314 311 311 308 305 308 313 313 313 314 317 319 321 326 322
239 246 235 228 231 226 239 242 224 181 184 186 189 199 199 206 210 215 177 165 135 129 106 81 84 66 81 103 120 134 144 154 138 122 131 136 131 141 162 141 108 87 250 265 181 109 281 95 283 138 345 346 284 278 275 306 302 306 308 309 311 300 299 301 307 308 310 311 310 312 315 315 322 312
260 243 251 238 235 240 240 245 242 187 196 195 206 201 199 196 221 202 154 173 145 136 130 137 126 128 124 110 116 124 125 124 121 118 129 139 132 141 157 174 160 167 195 254 174 173 262 146 288 154 202 281 301 290 340 310 292 296 300 306 311 298 309 314 311 310 310 309 306 306 308 306 308 308
248 245 239 246 237 232 235 240 245 238 206 215 222 193 209 215 173 96 141 169 158 148 153 141 139 135 129 123 118 118 124 124 113 110 117 130 136 142 149 152 142 130 222 244 200 125 231 171 241 352 338 149 245 322 289 304 293 284 279 292 295 298 313 308 306 307 310 311 310 310 311 312 308 314
243 243 244 236 240 238 237 237 240 241 246 238 217 215 237 175 133 164 159 162 169 154 136 137 135 137 137 137 129 127 130 131 121 116 109 104 127 149 154 152 148 140 186 241 183 161 127 341 199 203 265 306 289 230 300 294 276 280 312 299 275 278 294 295 311 306 307 305 310 310 309 310 305 310
246 249 253 255 253 245 239 238 236 237 242 250 222 214 221 194 169 148 172 166 157 152 153 146 145 153 155 144 145 139 126 108 107 105 108 124 120 109 102 105 126 138 161 160 196 146 129 227 214 153 257 210 255 288 271 293 299 305 319 296 297 296 289 284 294 300 302 308 306 309 314 304 303 310
254 253 253 252 257 256 248 239 234 232 232 231 229 203 203 190 164 158 151 158 135 133 144 150 149 161 166 132 128 137 136 133 120 110 115 116 112 108 94 86 83 97 118 135 137 138 132 146 267 204 195 216 249 281 292 260 273 280 286 299 298 281 300 312 307 302 307 309 310 313 319 316 309 317
262 263 258 255 254 254 256 259 255 247 243 236 230 201 194 166 156 161 158 152 136 129 140 134 135 136 129 127 129 123 116 109 103 99 84 82 81 91 93 83 81 74 90 125 157 169 155 147 160 240 95 184 221 266 266 273 289 297 310 322 322 322 316 309 311 311 307 309 305 306 300 296 305 310
251 263 275 268 259 261 262 240 223 228 231 218 201 192 178 172 168 163 158 150 145 144 138 138 137 125 101 106 119 121 122 124 132 133 128 117 95 95 100 84 52 9 21 330 213 172 149 138 153 147 63 288 233 254 262 292 301 292 305 302 285 302 297 339 330 327 325 323 321 315 305 304 294 313
274 289 275 162 193 200 204 196 180 157 134 124 130 148 154 54 174 165 158 156 144 140 129 129 121 109 107 107 110 122 127 133 157 148 130 118 127 108 116 116 124 7 323 322 292 280 220 157 158 139 85 280 286 238 251 226 265 292 300 298 321 318 301 326 321 325 321 317 316 311 313 321 318 308
290 331 53 104 119 121 96 61 58 77 98 108 128 132 123 118 105 87 76 76 78 89 109 108 109 109 126 126 120 117 131 150 155 139 124 126 141 160 134 76 137 261 310 321 319 309 271 228 187 176 182 201 260 283 271 225 253 274 289 297 305 290 299 312 317 314 316 321 325 325 318 317 319 320
101 100 103 113 134 137 132 118 111 113 110 100 111 122 128 128 129 127 131 129 128 133 129 138 136 139 128 123 127 137 139 158 158 141 114 127 130 118 75 119 159 167 294 312 305 318 335 343 293 274 269 246 219 239 274 322 298 281 310 308 329 315 313 311 309 307 326 337 328 318 318 316 303 302
154 176 176 198 191 176 157 164 164 158 142 133 123 120 132 136 135 134 127 124 126 131 134 137 135 137 134 141 155 158 157 166 157 175 147 156 150 112 121 123 170 227 266 305 310 321 333 350 357 344 325 288 251 232 216 212 275 305 299 305 314 306 296 305 312 320 326 290 302 322 325 330 328 336
183 193 200 216 197 206 194 187 180 164 154 149 143 146 146 144 135 131 126 131 130 133 136 142 144 146 147 156 164 162 168 161 163 116 91 115 118 129 140 130 144 122 12 338 341 326 342 355 2 354 328 321 336 315 246 174 228 285 314 304 280 281 298 309 317 320 322 311 350 340 328 326 335 333
216 202 209 211 212 195 196 201 184 176 162 159 150 147 145 148 149 142 140 142 137 142 144 148 149 151 156 161 170 167 163 149 141 132 109 106 107 92 85 106 131 132 330 305 317 315 351 4 13 17 11 360 0 346 357 187 189 264 298 285 296 295 287 302 305 291 319 353 20 3 340 332 325 320
216 211 208 210 207 195 198 183 171 176 165 146 130 115 113 119 128 126 125 128 133 147 155 149 150 155 160 161 155 150 147 137 130 123 113 107 102 105 91 49 45 2 351 305 281 308 338 5 16 36 18 357 355 336 309 303 302 269 186 249 289 283 302 313 317 339 357 12 357 7 339 321 306 312
220 207 210 210 206 203 180 158 150 142 121 111 132 124 113 107 97 110 123 129 143 144 146 143 148 152 156 153 134 128 115 117 118 111 116 111 103 87 104 88 343 320 293 288 303 307 257 75 29 50 17 344 322 317 319 324 342 326 179 165 297 302 320 320 331 343 339 9 349 333 324 322 311 312
218 206 210 207 193 166 160 155 148 143 138 128 118 121 129 136 133 136 139 141 142 139 132 134 148 154 147 144 136 134 130 121 109 116 113 109 114 120 97 99 351 296 325 331 313 326 24 26 15 308 212 258 279 281 283 306 296 292 281 292 276 290 288 284 291 329 23 355 339 325 302 250 263 279
195 172 176 157 150 130 124 124 117 112 105 110 126 136 137 135 137 140 138 138 128 123 130 138 138 127 118 126 120 108 105 120 127 124 123 121 111 113 151 182 202 250 294 308 341 345 3 338 284 241 236 233 241 259 265 266 273 282 293 302 265 213 248 251 284 15 352 330 309 343 337 343 348 331
173 169 163 147 136 132 127 123 121 119 112 99 91 99 121 135 138 136 132 132 128 128 122 132 132 127 131 130 130 125 115 109 107 108 107 111 116 150 207 205 189 196 356 329 336 335 313 276 270 260 254 257 266 50 16 304 296 303 316 303 331 294 267 236 203 131 163 294 323 309 317 325 323 330
131 149 138 129 126 125 119 116 118 107 102 108 108 115 142 121 107 118 118 116 110 111 118 125 126 119 119 118 116 111 117 121 118 130 145 142 150 181 199 192 195 254 57 314 300 281 278 292 285 274 238 207 123 103 299 281 292 302 300 310 311 317 358 66 133 156 162 169 4 324 304 294 309 326
133 129 133 127 120 117 115 107 100 110 118 122 123 133 122 114 125 120 115 112 113 116 119 115 113 111 110 107 107 112 115 120 136 156 177 178 155 171 237 239 238 241 231 265 271 270 294 300 308 335 341 132 182 157 250 269 262 271 288 309 306 318 310 328 331 244 223 230 219 221 226 277 343 341
149 124 118 121 117 108 98 103 106 108 116 122 124 131 134 124 115 119 126 133 129 125 120 115 113 113 114 107 102 98 118 152 158 157 170 189 193 182 196 230 267 299 305 293 320 328 324 334 333 337 6 359 229 205 258 278 279 270 279 289 298 331 311 308 326 302 271 259 248 241 246 240 238 243
160 135 122 115 99 99 107 106 111 128 127 126 120 114 110 111 118 120 120 123 120 119 117 122 115 111 115 120 118 134 139 106 144 181 194 211 177 181 178 283 332 340 344 332 359 339 348 342 323 344 354 304 235 227 269 263 275 298 297 305 304 296 286 338 1 325 318 308 247 217 223 228 237 250